Location: Chuathbaluk
(61.5726°N, 159.2454°W)
Time: 13:53:54
(UTC+00:00)

DELFI C3 - Pass Details

Date: 25 January 2021
Orbit: 531 x 550 km, 97.4° (Epoch: 04 March)

Event Time Altitude Azimuth Distance (km) Brightness Sun altitude
Exits shadow 05:36:32 69° 25° (NNE) 597 ? -22.1°
Drops below altitude 10° 05:40:12 10° 346° (NNW) 1,845 ? -22.6°
Sets 05:42:20 0° 345° (NNW) 2,744 ? -22.8°
